Location: Unspecified
(47.7670°N, 8.8522°E)
Time: 12:35:46
(UTC+01:00)

Tiangong - Pass Details

Date: 03 December 2022
Orbit: 383 x 386 km, 41.5° (Epoch: 30 January)

Event Time Altitude Azimuth Distance (km) Brightness Sun altitude
Rises 18:21:35 0° 240° (WSW) 2,252 3.2 -17.4°
Reaches altitude 10° 18:23:54 10° 225° (SW) 1,402 1.6 -17.8°
Maximum altitude 18:26:28 23° 171° (S) 876 -0.3 -18.2°
Enters shadow 18:26:55 22° 157° (SSE) 897 -0.4 -18.2°
